OVO1020 ZSPD-ZSAM

Flight info

Callsign OVO1020
Flight time N/A
Altitude 25600
Route NXD81D/17L NXD W131 AKDIM A470 ENVEN
Aircraft A359/H-SDE2E3FGHIJ1RWXY/LB1

Departure

Time 2026-04-30 14:38
Airport Shanghai Pudong International Airport (ZSPD)

Arrival

Time N/A
Airport Xiamen Gaoqi International Airport (ZSAM)
Time Latitude Longitude Altitude Speed Heading
2026-04-30 14:18 31.13796 121.80142 29 ft 0 kts 72°
2026-04-30 14:25 31.13794 121.80137 29 ft 3 kts 71°
2026-04-30 14:25 31.13771 121.80081 27 ft 4 kts 51°
2026-04-30 14:26 31.13734 121.80057 28 ft 0 kts 342°
2026-04-30 14:29 31.13737 121.80056 29 ft 3 kts 342°
2026-04-30 14:30 31.13736 121.79774 29 ft 17 kts 262°
2026-04-30 14:31 31.13945 121.79642 29 ft 22 kts 342°
2026-04-30 14:31 31.14225 121.79536 29 ft 21 kts 342°
2026-04-30 14:31 31.14353 121.79487 29 ft 19 kts 342°
2026-04-30 14:32 31.14584 121.79400 29 ft 19 kts 342°
2026-04-30 14:32 31.14710 121.79352 30 ft 17 kts 342°
2026-04-30 14:32 31.14829 121.79307 29 ft 19 kts 342°
2026-04-30 14:33 31.14953 121.79261 30 ft 19 kts 342°
2026-04-30 14:33 31.15164 121.79181 29 ft 17 kts 342°
2026-04-30 14:33 31.15292 121.79133 29 ft 21 kts 342°
2026-04-30 14:34 31.15435 121.79078 28 ft 21 kts 342°
2026-04-30 14:34 31.15551 121.79035 28 ft 18 kts 342°
2026-04-30 14:34 31.15676 121.78988 28 ft 19 kts 342°
2026-04-30 14:34 31.15798 121.78941 29 ft 16 kts 342°
2026-04-30 14:35 31.15969 121.78877 29 ft 16 kts 342°
2026-04-30 14:35 31.16116 121.78820 29 ft 11 kts 336°
2026-04-30 14:35 31.16145 121.78742 29 ft 7 kts 257°
2026-04-30 14:36 31.16144 121.78740 29 ft 0 kts 255°
2026-04-30 14:36 31.16144 121.78738 29 ft 2 kts 255°
2026-04-30 14:36 31.16123 121.78668 29 ft 16 kts 244°
2026-04-30 14:37 31.16010 121.78641 28 ft 17 kts 161°
2026-04-30 14:37 31.15936 121.78669 28 ft 38 kts 162°
2026-04-30 14:37 31.15443 121.78855 28 ft 108 kts 162°
2026-04-30 14:37 31.14535 121.79194 87 ft 160 kts 163°
2026-04-30 14:38 31.13419 121.79600 634 ft 176 kts 163°
2026-04-30 14:38 31.12201 121.80050 1244 ft 191 kts 164°
2026-04-30 14:38 31.10919 121.80524 1776 ft 199 kts 165°
2026-04-30 14:38 31.09527 121.80991 2047 ft 219 kts 166°
2026-04-30 14:39 31.07997 121.81493 2344 ft 239 kts 166°
2026-04-30 14:39 31.06332 121.82046 2693 ft 256 kts 166°
2026-04-30 14:39 31.04598 121.82628 3302 ft 263 kts 165°
2026-04-30 14:40 31.00946 121.83168 4485 ft 271 kts 198°
2026-04-30 14:40 30.99337 121.82087 5098 ft 270 kts 228°
2026-04-30 14:40 30.98362 121.80251 5626 ft 267 kts 252°
2026-04-30 14:40 30.97769 121.78195 5868 ft 267 kts 257°
2026-04-30 14:41 30.97234 121.76125 5905 ft 267 kts 257°
2026-04-30 14:41 30.96691 121.74048 5902 ft 268 kts 257°
2026-04-30 14:41 30.96301 121.71940 5896 ft 264 kts 270°
2026-04-30 14:41 30.96485 121.69842 6023 ft 261 kts 285°
2026-04-30 14:42 30.96875 121.67767 6581 ft 262 kts 286°
2026-04-30 14:42 30.97269 121.65713 7342 ft 259 kts 285°
2026-04-30 14:42 30.97655 121.63678 8068 ft 257 kts 285°
2026-04-30 14:42 30.98035 121.61646 8809 ft 256 kts 285°
2026-04-30 14:43 30.98410 121.59629 9518 ft 255 kts 284°
2026-04-30 14:43 30.98785 121.57602 10188 ft 257 kts 284°
2026-04-30 14:43 30.99172 121.55518 10509 ft 270 kts 284°
2026-04-30 14:43 30.99578 121.53327 10778 ft 284 kts 284°
2026-04-30 14:44 31.00002 121.51029 11038 ft 297 kts 285°
2026-04-30 14:44 31.00444 121.48625 11300 ft 309 kts 285°
2026-04-30 14:44 31.00904 121.46132 11554 ft 320 kts 285°
2026-04-30 14:44 31.01378 121.43568 11911 ft 327 kts 285°
2026-04-30 14:45 31.01854 121.40964 12394 ft 329 kts 285°
2026-04-30 14:45 31.02332 121.38349 12927 ft 330 kts 285°
2026-04-30 14:45 31.02811 121.35732 13434 ft 331 kts 285°
2026-04-30 14:45 31.03293 121.33096 13929 ft 333 kts 285°
2026-04-30 14:46 31.03777 121.30451 14385 ft 334 kts 285°
2026-04-30 14:46 31.04261 121.27803 14847 ft 334 kts 285°
2026-04-30 14:46 31.04745 121.25148 15307 ft 335 kts 285°
2026-04-30 14:46 31.05067 121.23386 15576 ft 337 kts 285°
2026-04-30 14:47 31.05723 121.19786 16083 ft 341 kts 285°
2026-04-30 14:47 31.06215 121.17080 16563 ft 341 kts 285°
2026-04-30 14:47 31.06654 121.14358 17033 ft 344 kts 281°
2026-04-30 14:47 31.06662 121.11544 17481 ft 351 kts 268°
2026-04-30 14:48 31.06135 121.08776 17932 ft 357 kts 261°
2026-04-30 14:48 31.05443 121.05986 18354 ft 359 kts 260°
2026-04-30 14:48 31.04734 121.03186 18739 ft 360 kts 260°
2026-04-30 14:48 31.04028 121.00375 19109 ft 362 kts 260°
2026-04-30 14:49 31.03324 120.97557 19466 ft 363 kts 260°
2026-04-30 14:49 31.02618 120.94726 19772 ft 366 kts 261°
2026-04-30 14:49 31.01905 120.91852 19977 ft 371 kts 261°
2026-04-30 14:49 31.01187 120.88963 20351 ft 372 kts 261°
2026-04-30 14:50 30.99745 120.83180 21148 ft 370 kts 261°
2026-04-30 14:50 30.99023 120.80306 21571 ft 369 kts 259°
2026-04-30 14:51 30.97527 120.74556 22146 ft 373 kts 259°
2026-04-30 14:51 30.96783 120.71647 22446 ft 374 kts 259°
2026-04-30 14:51 30.95313 120.65834 23057 ft 375 kts 259°
2026-04-30 14:52 30.94577 120.62911 23369 ft 376 kts 260°
2026-04-30 14:52 30.93100 120.57042 23887 ft 379 kts 260°
2026-04-30 14:52 30.92359 120.54098 24127 ft 380 kts 260°
2026-04-30 14:53 30.91109 120.49187 24515 ft 382 kts 259°
2026-04-30 14:53 30.89723 120.45315 24849 ft 394 kts 249°
2026-04-30 14:54 30.86867 120.41009 25194 ft 418 kts 233°
2026-04-30 14:54 30.82174 120.36758 25498 ft 436 kts 225°
2026-04-30 14:55 30.77120 120.32753 25705 ft 443 kts 224°
2026-04-30 14:55 30.74555 120.30717 25711 ft 452 kts 225°
2026-04-30 14:55 30.68451 120.25773 25715 ft 459 kts 225°
2026-04-30 14:56 30.64127 120.22238 25706 ft 457 kts 225°
2026-04-30 14:56 30.58934 120.17986 25711 ft 455 kts 225°
2026-04-30 14:57 30.56344 120.15865 25711 ft 455 kts 225°
2026-04-30 14:57 30.51166 120.11628 25714 ft 456 kts 225°
2026-04-30 14:58 30.45971 120.07382 25683 ft 459 kts 225°
2026-04-30 14:58 30.43308 120.05327 25717 ft 463 kts 221°
2026-04-30 14:58 30.37758 120.01503 25715 ft 465 kts 220°
2026-04-30 14:59 30.32144 119.97768 25717 ft 466 kts 219°
2026-04-30 15:00 30.23705 119.92182 25721 ft 466 kts 219°
2026-04-30 15:00 30.18090 119.88455 25684 ft 466 kts 219°
2026-04-30 15:01 30.12465 119.84723 25725 ft 466 kts 219°
2026-04-30 15:01 30.09653 119.82860 25721 ft 466 kts 219°
2026-04-30 15:01 30.04013 119.79128 25704 ft 469 kts 219°
2026-04-30 15:02 30.01187 119.77251 25722 ft 468 kts 219°
2026-04-30 15:02 29.98375 119.75356 25723 ft 468 kts 220°
2026-04-30 15:03 29.89943 119.69660 25733 ft 469 kts 219°
2026-04-30 15:03 29.83764 119.66839 25731 ft 495 kts 200°
2026-04-30 15:04 29.76808 119.66025 25737 ft 507 kts 191°
2026-04-30 15:04 29.66263 119.65466 25730 ft 507 kts 191°
2026-04-30 15:05 29.55673 119.64961 25722 ft 509 kts 189°
2026-04-30 15:06 29.48626 119.64722 25730 ft 504 kts 191°
2026-04-30 15:06 29.41633 119.64287 25729 ft 503 kts 191°
2026-04-30 15:07 29.34649 119.63825 25733 ft 503 kts 191°
2026-04-30 15:07 29.27673 119.63384 25737 ft 499 kts 191°
2026-04-30 15:08 29.20748 119.62960 25740 ft 498 kts 191°
2026-04-30 15:08 29.10366 119.62324 25740 ft 498 kts 191°
2026-04-30 15:09 29.03452 119.61909 25740 ft 497 kts 190°
2026-04-30 15:09 28.96554 119.61478 25745 ft 496 kts 191°
2026-04-30 15:10 28.89658 119.61041 25747 ft 496 kts 190°
2026-04-30 15:11 28.75882 119.60195 25750 ft 495 kts 190°
2026-04-30 15:11 28.69006 119.59766 25760 ft 495 kts 190°
2026-04-30 15:12 28.58688 119.59122 25735 ft 495 kts 190°
2026-04-30 15:13 28.51820 119.58697 25756 ft 494 kts 190°
2026-04-30 15:14 28.38103 119.57890 25762 ft 494 kts 189°
2026-04-30 15:14 28.27810 119.57323 25757 ft 494 kts 189°
2026-04-30 15:16 28.10668 119.56386 25764 ft 493 kts 189°
2026-04-30 15:17 27.96965 119.56089 25767 ft 494 kts 186°
2026-04-30 15:18 27.79783 119.55992 25774 ft 494 kts 186°
2026-04-30 15:19 27.69470 119.55945 25766 ft 494 kts 186°